When you browse on this site, cookies collect data to enhance your experience and personalize the content and advertising you see.
Visit our Privacy Policy to learn more. By continuing to use the site, you agree to this use of cookies and data.

Hourly Weather Sederot

Today, 2 July, Thursday

Time Temperature Precipitation Wind Pressure Humidity
00:00 +23°C° 0 mm 1 mps 744 mmHg 77%
01:00 +22°C° 0 mm 1 mps 744 mmHg 78%
02:00 +20°C° 0 mm 0 mps 743 mmHg 79%
03:00 +20°C° 0 mm 0 mps 744 mmHg 79%
04:00 +20°C° 0 mm 0 mps 744 mmHg 79%
05:00 +19°C° 0 mm 0 mps 744 mmHg 79%
06:00 +22°C° 0 mm 0 mps 744 mmHg 67%
07:00 +27°C° 0 mm 1 mps 744 mmHg 55%
08:00 +29°C° 0 mm 1 mps 744 mmHg 44%
09:00 +31°C° 0 mm 2 mps 744 mmHg 39%
10:00 +34°C° 0 mm 3 mps 744 mmHg 35%
11:00 +35°C° 0 mm 4 mps 744 mmHg 31%
12:00 +36°C° 0 mm 5 mps 744 mmHg 31%
13:00 +36°C° 0 mm 5 mps 743 mmHg 32%
14:00 +36°C° 0 mm 5 mps 743 mmHg 32%
15:00 +35°C° 0 mm 5 mps 743 mmHg 36%
16:00 +34°C° 0 mm 5 mps 743 mmHg 39%
17:00 +33°C° 0 mm 5 mps 743 mmHg 43%
18:00 +30°C° 0 mm 5 mps 743 mmHg 52%
19:00 +28°C° 0 mm 4 mps 743 mmHg 61%
20:00 +26°C° 0 mm 3 mps 743 mmHg 70%
21:00 +25°C° 0 mm 2 mps 743 mmHg 71%
22:00 +25°C° 0 mm 1 mps 743 mmHg 71%
23:00 +24°C° 0 mm 1 mps 744 mmHg 72%

Tomorrow, 3 July, Friday

Time Temperature Precipitation Wind Pressure Humidity
00:00 +21°C° 0 mm 0 mps 743 mmHg 73%
01:00 +21°C° 0 mm 0 mps 743 mmHg 74%
02:00 +20°C° 0 mm 0 mps 743 mmHg 75%
03:00 +20°C° 0 mm 0 mps 743 mmHg 74%
04:00 +20°C° 0 mm 0 mps 743 mmHg 74%
05:00 +22°C° 0 mm 1 mps 743 mmHg 73%
06:00 +25°C° 0 mm 1 mps 744 mmHg 64%
07:00 +27°C° 0 mm 1 mps 744 mmHg 55%
08:00 +30°C° 0 mm 2 mps 744 mmHg 46%
09:00 +31°C° 0 mm 2 mps 744 mmHg 42%
10:00 +34°C° 0 mm 3 mps 744 mmHg 38%
11:00 +36°C° 0 mm 4 mps 744 mmHg 34%
12:00 +36°C° 0 mm 4 mps 744 mmHg 34%
13:00 +36°C° 0 mm 5 mps 743 mmHg 35%
14:00 +36°C° 0 mm 6 mps 743 mmHg 35%
15:00 +35°C° 0 mm 6 mps 743 mmHg 39%
16:00 +34°C° 0 mm 6 mps 743 mmHg 44%
17:00 +32°C° 0 mm 6 mps 743 mmHg 49%
18:00 +30°C° 0 mm 5 mps 743 mmHg 59%
19:00 +28°C° 0 mm 4 mps 743 mmHg 69%
20:00 +26°C° 0 mm 2 mps 744 mmHg 79%
21:00 +26°C° 0 mm 2 mps 744 mmHg 81%
22:00 +25°C° 0 mm 1 mps 744 mmHg 83%
23:00 +25°C° 0 mm 1 mps 744 mmHg 85%

Day after tomorrow, 4 July, Saturday

Time Temperature Precipitation Wind Pressure Humidity
00:00 +24°C° 0 mm 1 mps 744 mmHg 86%
01:00 +22°C° 0 mm 0 mps 744 mmHg 86%
02:00 +22°C° 0 mm 0 mps 744 mmHg 87%
03:00 +24°C° 0 mm 1 mps 744 mmHg 88%
04:00 +24°C° 0 mm 2 mps 744 mmHg 88%
05:00 +24°C° 0 mm 2 mps 745 mmHg 89%
06:00 +26°C° 0 mm 2 mps 745 mmHg 79%
07:00 +28°C° 0 mm 2 mps 745 mmHg 69%
08:00 +29°C° 0 mm 2 mps 745 mmHg 60%
09:00 +31°C° 0 mm 3 mps 745 mmHg 53%
10:00 +33°C° 0 mm 4 mps 745 mmHg 47%
11:00 +35°C° 0 mm 5 mps 745 mmHg 41%
12:00 +35°C° 0 mm 5 mps 744 mmHg 40%
13:00 +35°C° 0 mm 5 mps 744 mmHg 40%
14:00 +35°C° 0 mm 6 mps 744 mmHg 39%
15:00 +34°C° 0 mm 5 mps 744 mmHg 42%
16:00 +33°C° 0 mm 5 mps 744 mmHg 45%
17:00 +32°C° 0 mm 5 mps 744 mmHg 47%
18:00 +30°C° 0 mm 4 mps 744 mmHg 57%
19:00 +28°C° 0 mm 3 mps 744 mmHg 67%
20:00 +26°C° 0 mm 2 mps 744 mmHg 77%
21:00 +25°C° 0 mm 1 mps 744 mmHg 78%
22:00 +25°C° 0 mm 1 mps 744 mmHg 79%
23:00 +24°C° 0 mm 1 mps 744 mmHg 80%

5 July, Sunday

Time Temperature Precipitation Wind Pressure Humidity
00:00 +24°C° 0 mm 1 mps 744 mmHg 82%
01:00 +24°C° 0 mm 2 mps 744 mmHg 84%
02:00 +24°C° 0 mm 2 mps 744 mmHg 87%
03:00 +24°C° 0 mm 2 mps 744 mmHg 88%
04:00 +24°C° 0 mm 2 mps 744 mmHg 90%
05:00 +23°C° 0 mm 2 mps 743 mmHg 91%
06:00 +25°C° 0 mm 3 mps 743 mmHg 81%
07:00 +27°C° 0 mm 3 mps 743 mmHg 72%
08:00 +29°C° 0 mm 3 mps 744 mmHg 62%
09:00 +30°C° 0 mm 4 mps 743 mmHg 56%
10:00 +33°C° 0 mm 5 mps 743 mmHg 49%
11:00 +35°C° 0 mm 6 mps 743 mmHg 42%
12:00 +35°C° 0 mm 6 mps 743 mmHg 42%
13:00 +35°C° 0 mm 6 mps 742 mmHg 42%
14:00 +35°C° 0 mm 6 mps 742 mmHg 41%
15:00 +34°C° 0 mm 6 mps 742 mmHg 45%
16:00 +33°C° 0 mm 5 mps 742 mmHg 48%
17:00 +32°C° 0 mm 5 mps 742 mmHg 52%
18:00 +29°C° 0 mm 4 mps 742 mmHg 62%
19:00 +27°C° 0 mm 3 mps 742 mmHg 72%
20:00 +26°C° 0 mm 2 mps 743 mmHg 83%
21:00 +25°C° 0 mm 2 mps 743 mmHg 85%
22:00 +25°C° 0 mm 2 mps 743 mmHg 87%
23:00 +25°C° 0 mm 2 mps 743 mmHg 89%

6 July, Monday

Time Temperature Precipitation Wind Pressure Humidity
00:00 +25°C° 0 mm 2 mps 743 mmHg 90%
01:00 +25°C° 0 mm 2 mps 742 mmHg 91%
02:00 +24°C° 0 mm 2 mps 742 mmHg 92%
03:00 +24°C° 0 mm 2 mps 742 mmHg 92%
04:00 +24°C° 0 mm 2 mps 742 mmHg 92%
05:00 +24°C° 0 mm 2 mps 742 mmHg 92%
06:00 +26°C° 0 mm 3 mps 742 mmHg 82%
07:00 +27°C° 0 mm 4 mps 742 mmHg 73%
08:00 +29°C° 0 mm 4 mps 743 mmHg 64%
09:00 +30°C° 0 mm 5 mps 743 mmHg 57%
10:00 +33°C° 0 mm 5 mps 743 mmHg 50%
11:00 +34°C° 0 mm 6 mps 743 mmHg 43%
12:00 +34°C° 0 mm 6 mps 742 mmHg 44%
13:00 +34°C° 0 mm 7 mps 742 mmHg 45%
14:00 +34°C° 0 mm 7 mps 742 mmHg 46%
15:00 +33°C° 0 mm 6 mps 742 mmHg 49%
16:00 +32°C° 0 mm 6 mps 742 mmHg 53%
17:00 +30°C° 0 mm 5 mps 742 mmHg 56%
18:00 +29°C° 0 mm 4 mps 742 mmHg 65%
19:00 +27°C° 0 mm 3 mps 743 mmHg 75%
20:00 +26°C° 0 mm 2 mps 743 mmHg 84%
21:00 +25°C° 0 mm 2 mps 743 mmHg 85%
22:00 +25°C° 0 mm 2 mps 743 mmHg 87%
23:00 +25°C° 0 mm 2 mps 743 mmHg 88%

7 July, Tuesday

Time Temperature Precipitation Wind Pressure Humidity
00:00 +24°C° 0 mm 2 mps 743 mmHg 89%
01:00 +24°C° 0 mm 2 mps 743 mmHg 90%
02:00 +24°C° 0 mm 2 mps 743 mmHg 90%
03:00 +24°C° 0 mm 2 mps 743 mmHg 91%
04:00 +24°C° 0 mm 2 mps 743 mmHg 91%
05:00 +24°C° 0 mm 2 mps 743 mmHg 91%
06:00 +25°C° 0 mm 2 mps 744 mmHg 82%
07:00 +27°C° 0 mm 3 mps 744 mmHg 74%
08:00 +29°C° 0 mm 3 mps 744 mmHg 65%
09:00 +30°C° 0 mm 4 mps 744 mmHg 57%
10:00 +33°C° 0 mm 5 mps 744 mmHg 50%
11:00 +34°C° 0 mm 6 mps 744 mmHg 42%
12:00 +34°C° 0 mm 6 mps 744 mmHg 44%
13:00 +34°C° 0 mm 6 mps 744 mmHg 45%
14:00 +34°C° 0 mm 7 mps 744 mmHg 47%
15:00 +33°C° 0 mm 6 mps 744 mmHg 50%
16:00 +32°C° 0 mm 6 mps 744 mmHg 53%
17:00 +30°C° 0 mm 6 mps 744 mmHg 56%
18:00 +29°C° 0 mm 5 mps 744 mmHg 64%
19:00 +27°C° 0 mm 4 mps 744 mmHg 73%
20:00 +26°C° 0 mm 3 mps 745 mmHg 82%
21:00 +25°C° 0 mm 2 mps 745 mmHg 84%
22:00 +25°C° 0 mm 2 mps 745 mmHg 87%
23:00 +24°C° 0 mm 1 mps 745 mmHg 89%
Show more